Burnsville, North Carolina, United States (28714)
Lat: 35.92N, Lon: 82.3W
Wx Zone: NCZ049
Local Info
Past Weather Observations for Tuesday, April 15, 2014

NOTE: This archive is for the closest National Weather Service station to Burnsville. Information may differ from the station used for current weather conditions.

Time Weather Temperature Dewpoint Humidity Pressure Winds Precip Visibility
23:54
Partly Cloudy
32°F / 0°C 19°F / -7°C 60% 30.09 in
(1019 mb)
NNW 18.4 mph
(NNW 30 kph)
- 10SM
22:54
Overcast
34°F / 1°C 19°F / -7°C 56% 30.06 in
(1018 mb)
NNW 23 mph
(NNW 37 kph)
- 10SM
21:54
Partly Cloudy
34°F / 1°C 21°F / -6°C 60% 30.01 in
(1016 mb)
NNW 27.6 mph
(NNW 44 kph)
- 10SM
20:54
Mostly Cloudy
34°F / 1°C 23°F / -5°C 65% 30.01 in
(1016 mb)
NNW 25.3 mph
(NNW 41 kph)
- 10SM
19:54
Overcast
36°F / 2°C 21°F / -6°C 56% 29.98 in
(1015 mb)
NNW 32.2 mph
(NNW 52 kph)
- 10SM
19:42
Overcast
36°F / 2°C 23°F / -5°C 60% 29.98 in
(1015 mb)
NNW 31.1 mph
(NNW 50 kph)
- 10SM
19:27
Overcast
36°F / 2°C 25°F / -4°C 65% 29.95 in
(1014 mb)
N 26.5 mph
(N 43 kph)
- 10SM
19:07
Overcast
36°F / 2°C 25°F / -4°C 65% 29.95 in
(1014 mb)
NNW 32.2 mph
(NNW 52 kph)
- 10SM
18:54
Overcast
36°F / 2°C 25°F / -4°C 65% 29.95 in
(1014 mb)
NNW 26.5 mph
(NNW 43 kph)
0.00 in
(0.00 mm)
10SM
17:54
Overcast
Light Rain
36°F / 2°C 28°F / -2°C 75% 29.92 in
(1013 mb)
NNW 20.7 mph
(NNW 33 kph)
0.00 in
(0.00 mm)
10SM
17:42
Mostly Cloudy
37°F / 3°C 30°F / -1°C 75% 29.89 in
(1012 mb)
NNW 20.7 mph
(NNW 33 kph)
- 10SM
16:54
Mostly Cloudy
37°F / 3°C 28°F / -2°C 70% 29.86 in
(1011 mb)
NNW 29.9 mph
(NNW 48 kph)
- 10SM
15:54
Partly Cloudy
39°F / 4°C 30°F / -1°C 70% 29.83 in
(1010 mb)
NNW 34.5 mph
(NNW 56 kph)
- 10SM
14:54
Mostly Cloudy
39°F / 4°C 32°F / 0°C 75% 29.8 in
(1009 mb)
NNW 35.7 mph
(NNW 57 kph)
0.00 in
(0.00 mm)
10SM
13:54
Overcast
41°F / 5°C 39°F / 4°C 93% 29.8 in
(1009 mb)
N 31.1 mph
(N 50 kph)
0.02 in
(0.51 mm)
10SM
12:54
Overcast
Light Rain
43°F / 6°C 41°F / 5°C 93% 29.8 in
(1009 mb)
N 20.7 mph
(N 33 kph)
0.04 in
(1.02 mm)
10SM
12:01
Overcast
Rain
43°F / 6°C 41°F / 5°C 93% 29.8 in
(1009 mb)
NNW 31.1 mph
(NNW 50 kph)
0.00 in
(0.00 mm)
6SM
11:54
Overcast
Light Rain
41°F / 5°C 41°F / 5°C 100% 29.8 in
(1009 mb)
NNW 24.2 mph
(NNW 39 kph)
0.13 in
(3.30 mm)
10SM
11:09
Overcast
Rain
41°F / 5°C 39°F / 4°C 93% 29.77 in
(1008 mb)
N 24.2 mph
(N 39 kph)
0.10 in
(2.54 mm)
3SM
11:04
Overcast
Heavy Rain
41°F / 5°C 39°F / 4°C 93% 29.77 in
(1008 mb)
N 27.6 mph
(N 44 kph)
0.08 in
(2.03 mm)
1 1/2SM
10:56
Heavy Rain
41°F / 5°C 39°F / 4°C 93% 29.77 in
(1008 mb)
N 27.6 mph
(N 44 kph)
0.02 in
(0.51 mm)
1 1/4SM
10:54
Overcast
Light Rain
43°F / 6°C 39°F / 4°C 87% 29.77 in
(1008 mb)
N 26.5 mph
(N 43 kph)
0.01 in
(0.25 mm)
1 3/4SM
10:08
Overcast
Rain
45°F / 7°C 45°F / 7°C 100% 29.74 in
(1007 mb)
NNW 26.5 mph
(NNW 43 kph)
0.00 in
(0.00 mm)
5SM
09:57
Overcast
Rain
46°F / 8°C 45°F / 7°C 93% 29.74 in
(1007 mb)
NNW 25.3 mph
(NNW 41 kph)
0.00 in
(0.00 mm)
3SM
09:54
Overcast
Rain
46°F / 8°C 45°F / 7°C 93% 29.74 in
(1007 mb)
NNW 25.3 mph
(NNW 41 kph)
0.02 in
(0.51 mm)
2SM
09:48
Overcast
Light Rain
46°F / 8°C 46°F / 8°C 100% 29.74 in
(1007 mb)
N 20.7 mph
(N 33 kph)
0.00 in
(0.00 mm)
3SM
09:43
Overcast
Light Rain
48°F / 9°C 46°F / 8°C 94% 29.71 in
(1006 mb)
N 23 mph
(N 37 kph)
0.00 in
(0.00 mm)
4SM
09:35
Overcast
Light Rain
54°F / 12°C 52°F / 11°C 94% 29.71 in
(1006 mb)
NNW 21.9 mph
(NNW 35 kph)
0.00 in
(0.00 mm)
6SM
08:54
Overcast
Fog And Mist
57°F / 14°C 55°F / 13°C 94% 29.68 in
(1005 mb)
S 10.4 mph
(S 17 kph)
0.00 in
(0.00 mm)
6SM
08:52
Overcast
57°F / 14°C 55°F / 13°C 94% 29.68 in
(1005 mb)
S 8.1 mph
(S 13 kph)
0.00 in
(0.00 mm)
7SM
07:54
Overcast
Light Rain
57°F / 14°C 55°F / 13°C 94% 29.71 in
(1006 mb)
S 11.5 mph
(S 19 kph)
0.00 in
(0.00 mm)
4SM
06:54
Mostly Cloudy
57°F / 14°C 55°F / 13°C 94% 29.71 in
(1006 mb)
S 8.1 mph
(S 13 kph)
- 10SM
05:54
Mostly Cloudy
57°F / 14°C 55°F / 13°C 94% 29.71 in
(1006 mb)
S 5.8 mph
(S 9 kph)
0.00 in
(0.00 mm)
10SM
04:54
Overcast
Light Rain
59°F / 15°C 57°F / 14°C 94% 29.74 in
(1007 mb)
S 10.4 mph
(S 17 kph)
0.05 in
(1.27 mm)
10SM
04:08
Overcast
Light Rain
61°F / 16°C 57°F / 14°C 88% 29.74 in
(1007 mb)
S 8.1 mph
(S 13 kph)
0.01 in
(0.25 mm)
10SM
03:54
Overcast
Light Rain
61°F / 16°C 59°F / 15°C 94% 29.74 in
(1007 mb)
S 5.8 mph
(S 9 kph)
0.04 in
(1.02 mm)
10SM
02:54
Overcast
Light Rain
59°F / 15°C 59°F / 15°C 100% 29.77 in
(1008 mb)
S 6.9 mph
(S 11 kph)
0.07 in
(1.78 mm)
8SM
02:02
Overcast
Light Rain
61°F / 16°C 59°F / 15°C 94% 29.77 in
(1008 mb)
SSE 5.8 mph
(SSE 9 kph)
0.00 in
(0.00 mm)
10SM
01:54
Overcast
Light Rain
61°F / 16°C 59°F / 15°C 94% 29.77 in
(1008 mb)
SSE 4.6 mph
(SSE 7 kph)
0.03 in
(0.76 mm)
10SM
00:54
Overcast
Light Rain
61°F / 16°C 59°F / 15°C 94% 29.8 in
(1009 mb)
SE 4.6 mph
(SE 7 kph)
0.12 in
(3.05 mm)
10SM
Time Weather Temperature Dewpoint Humidity Pressure Winds Precip Visibility


Weather for websites

WeatherForYou.com, LLC is not responsible for any damages or problems caused by this service. Current weather conditions are obtained from the closest station including government and personal stations which may have varying degrees of accuracy. Weather forecasts are derived from the NOAA NDFD. Like all things, this site belongs to Jesus Christ... He just trusts me to maintain it. If you have any questions or comments email webmaster@weatherforyou.com

Copyright © 2014, WeatherForYou.com LLC. All rights reserved.